Вернуться в каталог

H-2A R/B

АктивенHEO
NORAD 26899·ROCKET BODY·🇯🇵 Japan

Запущен Aug 29, 2001 с Tanegashima Space Center

Loading…

Ближайшие Пролёты (ближайшие 24 часа)

TLE

СвежийSource: Space-Track

Эпоха: Sep 14, 2026, 08:45 UTC

1 26899U 01038B   26257.36493742  .00001683  00000-0  30118-3 0  9990
2 26899  28.1329  84.8034 6988714 345.5844   1.8055  2.66633223222563

Отслеживайте H-2A R/B в реальном времени с AllMySat

Download on the App Store